sat.trackr.live / text

‹ back to catalog

STARLINK-36283

NORAD 67197 · 2025-304F

PAYLOAD ACTIVE UNKNOWN

§ Identity

Operator
Country
US
Launch date
2025-12-17
Launch site
AFWTR
Launch vehicle
Mass (kg)
RCS (m²)

Purposes: comms

External: N2YO · Heavens-Above · Gunter

§ Orbital elements

Epoch: 2026-05-24T23:15:33.492096Z

Period
96.11 min
Inclination
70.0021°
Eccentricity
0.0002297
Mean motion
14.98336401 rev/d
Perigee alt
570.4 km
Apogee alt
573.6 km
Semi-major
6,950.2 km
B*
2.4501e-4
RAAN
342.0054°
Arg perigee
270.1923°
Mean anomaly
89.8973°
Rev number
2,531

§ Raw data

STARLINK-362831 67197U 25304F   26144.96913764  .00002832  00000+0  24501-3 0  99952 67197  70.0021 342.0054 0002297 270.1923  89.8973 14.98336401 25318

JSON: /api/v1/satellites/67197 · /tle

For live sub-satellite position, see the globe view (requires WebGL).

§ Visibility from observer

Set your observer location to see the next 7 days of passes ≥ 10°. The values pass through the URL so the page stays shareable.

No JS? Fill the form by hand. The geolocation button needs JavaScript.